Location: Newark
(40.9833°N, 0.0333°W)
Time: 01:48:33
(UTC+00:00)

deb Explorer IX - Pass Details

Date: 28 October 2020
Orbit: 537 x 1105 km, 38.8° (Epoch: 02 December)

Event Time Altitude Azimuth Distance (km) Brightness Sun altitude
Rises 10:29:56 0° 280° (W) 3,812 ? 33.0°
Reaches altitude 10° 10:32:48 10° 272° (W) 2,904 ? 33.2°
Maximum altitude 10:39:18 37° 208° (SSW) 1,631 ? 33.6°
Drops below altitude 10° 10:45:52 10° 144° (SE) 2,929 ? 34.0°
Sets 10:48:46 0° 136° (SE) 3,847 ? 34.2°
